Time,TemperatureF,DewpointF,PressureIn,WindDirection,WindDirectionDegrees,WindSpeedMPH,WindSpeedGustMPH,Humidity,HourlyPrecipIn,Conditions,Clouds,dailyrainin,SoftwareType,DateUTC
2013-03-31 00:09:00,36.0,30.1,30.07,NE,45,0.0,-999.0,79,-99.99,,,0.00,Acu-Link.com,2013-03-31 04:09:00,
2013-03-31 00:25:00,35.1,29.6,30.07,NNW,337,0.0,-999.0,80,-99.99,,,0.00,Acu-Link.com,2013-03-31 04:25:00,
2013-03-31 00:40:00,34.3,29.1,30.07,NNE,22,0.0,-999.0,81,-99.99,,,0.00,Acu-Link.com,2013-03-31 04:40:00,
2013-03-31 00:55:00,33.6,29.6,30.07,NNW,337,0.0,-999.0,85,-99.99,,,0.00,Acu-Link.com,2013-03-31 04:55:00,
2013-03-31 01:11:00,32.9,29.2,30.07,NNW,337,0.0,-999.0,86,-99.99,,,0.00,Acu-Link.com,2013-03-31 05:11:00,
2013-03-31 01:41:00,32.4,28.7,30.07,NNW,337,0.0,-999.0,86,-99.99,,,0.00,Acu-Link.com,2013-03-31 05:41:00,
2013-03-31 01:57:00,32.0,28.9,30.06,North,0,0.0,-999.0,88,-99.99,,,0.00,Acu-Link.com,2013-03-31 05:57:00,
2013-03-31 02:12:00,31.1,28.5,30.06,North,0,0.0,-999.0,90,-99.99,,,0.00,Acu-Link.com,2013-03-31 06:12:00,
2013-03-31 02:27:00,30.9,28.3,30.06,SE,135,0.0,-999.0,90,-99.99,,,0.00,Acu-Link.com,2013-03-31 06:27:00,
2013-03-31 02:43:00,29.8,27.5,30.06,NNW,337,0.0,-999.0,91,-99.99,,,0.00,Acu-Link.com,2013-03-31 06:43:00,
2013-03-31 02:58:00,29.8,27.2,30.06,NNE,22,0.0,-999.0,90,-99.99,,,0.00,Acu-Link.com,2013-03-31 06:58:00,
2013-03-31 03:13:00,29.5,28.0,30.06,WNW,292,0.0,-999.0,94,-99.99,,,0.00,Acu-Link.com,2013-03-31 07:13:00,
2013-03-31 03:29:00,29.8,27.5,30.06,NNE,22,0.0,-999.0,91,-99.99,,,0.00,Acu-Link.com,2013-03-31 07:29:00,
2013-03-31 03:44:00,29.3,27.3,30.06,NE,45,0.0,-999.0,92,-99.99,,,0.00,Acu-Link.com,2013-03-31 07:44:00,
2013-03-31 03:59:00,28.9,26.9,30.06,NNW,337,0.0,-999.0,92,-99.99,,,0.00,Acu-Link.com,2013-03-31 07:59:00,
2013-03-31 04:15:00,29.1,27.1,30.06,SSE,157,0.0,-999.0,92,-99.99,,,0.00,Acu-Link.com,2013-03-31 08:15:00,
2013-03-31 04:30:00,28.6,26.3,30.06,WNW,292,0.0,-999.0,91,-99.99,,,0.00,Acu-Link.com,2013-03-31 08:30:00,
2013-03-31 04:45:00,28.6,26.8,30.07,NE,45,0.0,-999.0,93,-99.99,,,0.00,Acu-Link.com,2013-03-31 08:45:00,
2013-03-31 05:00:00,28.4,26.9,30.06,NNE,22,0.0,-999.0,94,-99.99,,,0.00,Acu-Link.com,2013-03-31 09:00:00,
2013-03-31 05:15:00,28.8,27.3,30.06,North,0,0.0,-999.0,94,-99.99,,,0.00,Acu-Link.com,2013-03-31 09:15:00,
2013-03-31 05:30:00,28.2,26.4,30.06,NNW,337,0.0,-999.0,93,-99.99,,,0.00,Acu-Link.com,2013-03-31 09:30:00,
2013-03-31 06:16:00,27.7,26.2,30.07,NW,315,0.0,-999.0,94,-99.99,,,0.00,Acu-Link.com,2013-03-31 10:16:00,
2013-03-31 06:32:00,27.5,25.7,30.07,SSW,202,0.0,-999.0,93,-99.99,,,0.00,Acu-Link.com,2013-03-31 10:32:00,
2013-03-31 06:47:00,27.5,26.3,30.07,SSW,202,0.0,-999.0,95,-99.99,,,0.00,Acu-Link.com,2013-03-31 10:47:00,
2013-03-31 07:02:00,28.2,27.0,30.08,SSW,202,0.0,-999.0,95,-99.99,,,0.00,Acu-Link.com,2013-03-31 11:02:00,
2013-03-31 07:18:00,30.0,28.0,30.08,NNE,22,0.0,-999.0,92,-99.99,,,0.00,Acu-Link.com,2013-03-31 11:18:00,
2013-03-31 07:33:00,32.4,29.8,30.08,NNW,337,0.0,-999.0,90,-99.99,,,0.00,Acu-Link.com,2013-03-31 11:33:00,
2013-03-31 07:48:00,36.7,30.8,30.07,NE,45,0.0,-999.0,79,-99.99,,,0.00,Acu-Link.com,2013-03-31 11:48:00,
2013-03-31 08:03:00,39.7,31.4,30.07,NNE,22,1.1,-999.0,72,-99.99,,,0.00,Acu-Link.com,2013-03-31 12:03:00,
2013-03-31 08:19:00,41.9,33.9,30.07,NNE,22,1.7,-999.0,73,-99.99,,,0.00,Acu-Link.com,2013-03-31 12:19:00,
2013-03-31 08:34:00,46.0,35.3,30.07,ESE,112,0.0,-999.0,66,-99.99,,,0.00,Acu-Link.com,2013-03-31 12:34:00,
2013-03-31 08:49:00,50.4,35.7,30.06,NNE,22,0.0,-999.0,57,-99.99,,,0.00,Acu-Link.com,2013-03-31 12:49:00,
2013-03-31 09:04:00,46.8,36.8,30.07,SE,135,1.7,-999.0,68,-99.99,,,0.00,Acu-Link.com,2013-03-31 13:04:00,
2013-03-31 09:19:00,47.1,37.8,30.06,SSE,157,3.2,-999.0,70,-99.99,,,0.00,Acu-Link.com,2013-03-31 13:19:00,
2013-03-31 09:35:00,46.2,37.7,30.07,ESE,112,3.7,-999.0,72,-99.99,,,0.00,Acu-Link.com,2013-03-31 13:35:00,
2013-03-31 09:50:00,47.3,37.7,30.06,ESE,112,2.7,-999.0,69,-99.99,,,0.00,Acu-Link.com,2013-03-31 13:50:00,
2013-03-31 10:05:00,47.8,38.1,30.07,SSW,202,3.2,-999.0,69,-99.99,,,0.00,Acu-Link.com,2013-03-31 14:05:00,
2013-03-31 10:20:00,48.4,38.7,30.07,ESE,112,3.7,-999.0,69,-99.99,,,0.00,Acu-Link.com,2013-03-31 14:20:00,
2013-03-31 11:22:00,51.3,39.1,30.05,SSE,157,2.7,-999.0,63,-99.99,,,0.00,Acu-Link.com,2013-03-31 15:22:00,
2013-03-31 11:52:00,51.1,40.1,30.06,SSE,157,1.7,-999.0,66,-99.99,,,0.00,Acu-Link.com,2013-03-31 15:52:00,
2013-03-31 12:08:00,51.4,40.0,30.05,ESE,112,2.2,-999.0,65,-99.99,,,0.00,Acu-Link.com,2013-03-31 16:08:00,
2013-03-31 12:23:00,50.5,39.6,30.04,SSW,202,3.2,-999.0,66,-99.99,,,0.00,Acu-Link.com,2013-03-31 16:23:00,
2013-03-31 12:38:00,49.5,40.1,30.04,SSE,157,3.2,-999.0,70,-99.99,,,0.00,Acu-Link.com,2013-03-31 16:38:00,
2013-03-31 12:53:00,49.8,39.3,30.03,South,180,3.2,-999.0,67,-99.99,,,0.00,Acu-Link.com,2013-03-31 16:53:00,
2013-03-31 13:09:00,50.0,38.3,30.03,SE,135,2.7,-999.0,64,-99.99,,,0.00,Acu-Link.com,2013-03-31 17:09:00,
2013-03-31 13:24:00,51.6,38.2,30.02,South,180,2.7,-999.0,60,-99.99,,,0.00,Acu-Link.com,2013-03-31 17:24:00,
2013-03-31 13:39:00,54.0,38.2,30.01,SSE,157,5.3,-999.0,55,-99.99,,,0.00,Acu-Link.com,2013-03-31 17:39:00,
2013-03-31 13:55:00,54.3,34.0,30.00,South,180,2.2,-999.0,46,-99.99,,,0.00,Acu-Link.com,2013-03-31 17:55:00,
2013-03-31 14:10:00,54.0,35.8,30.00,SSW,202,3.2,-999.0,50,-99.99,,,0.00,Acu-Link.com,2013-03-31 18:10:00,
2013-03-31 14:25:00,54.1,35.4,29.99,ESE,112,3.2,-999.0,49,-99.99,,,0.00,Acu-Link.com,2013-03-31 18:25:00,
2013-03-31 14:56:00,50.2,37.3,29.98,SSE,157,4.2,-999.0,61,-99.99,,,0.00,Acu-Link.com,2013-03-31 18:56:00,
2013-03-31 15:11:00,48.9,38.8,29.97,SSE,157,4.2,-999.0,68,-99.99,,,0.00,Acu-Link.com,2013-03-31 19:11:00,
2013-03-31 15:26:00,47.8,39.9,29.96,SE,135,4.7,-999.0,74,-99.99,,,0.00,Acu-Link.com,2013-03-31 19:26:00,
2013-03-31 15:42:00,48.4,40.8,29.96,South,180,2.2,-999.0,75,-99.99,,,0.00,Acu-Link.com,2013-03-31 19:42:00,
2013-03-31 15:57:00,47.7,40.5,29.95,SE,135,2.7,-999.0,76,-99.99,,,0.00,Acu-Link.com,2013-03-31 19:57:00,
2013-03-31 16:12:00,48.7,40.1,29.94,SSW,202,3.2,-999.0,72,-99.99,,,0.00,Acu-Link.com,2013-03-31 20:12:00,
2013-03-31 16:27:00,47.5,41.0,29.93,ESE,112,4.2,-999.0,78,-99.99,,,0.00,Acu-Link.com,2013-03-31 20:27:00,
2013-03-31 16:43:00,48.0,41.1,29.94,NE,45,3.7,-999.0,77,-99.99,,,0.00,Acu-Link.com,2013-03-31 20:43:00,
2013-03-31 17:13:00,48.2,40.7,29.92,ENE,67,0.0,-999.0,75,-99.99,,,0.00,Acu-Link.com,2013-03-31 21:13:00,
2013-03-31 17:29:00,48.2,40.7,29.91,ESE,112,1.7,-999.0,75,-99.99,,,0.00,Acu-Link.com,2013-03-31 21:29:00,
2013-03-31 17:44:00,48.0,40.5,29.92,South,180,2.7,-999.0,75,-99.99,,,0.00,Acu-Link.com,2013-03-31 21:44:00,
2013-03-31 17:59:00,48.0,40.5,29.90,ESE,112,0.0,-999.0,75,-99.99,,,0.00,Acu-Link.com,2013-03-31 21:59:00,
2013-03-31 18:15:00,47.5,40.0,29.90,NE,45,0.0,-999.0,75,-99.99,,,0.00,Acu-Link.com,2013-03-31 22:15:00,
2013-03-31 18:45:00,47.5,40.3,29.88,NE,45,1.7,-999.0,76,-99.99,,,0.00,Acu-Link.com,2013-03-31 22:45:00,
2013-03-31 19:00:00,47.1,39.9,29.86,ENE,67,2.2,-999.0,76,-99.99,,,0.00,Acu-Link.com,2013-03-31 23:00:00,
2013-03-31 19:31:00,46.4,40.6,29.83,ESE,112,1.1,-999.0,80,-99.99,,,0.00,Acu-Link.com,2013-03-31 23:31:00,
2013-03-31 19:46:00,46.4,40.6,29.82,WNW,292,4.7,-999.0,80,-99.99,,,0.00,Acu-Link.com,2013-03-31 23:46:00,
2013-03-31 20:02:00,46.4,40.6,29.80,East,90,1.7,-999.0,80,-99.99,,,0.00,Acu-Link.com,2013-04-01 00:02:00,
2013-03-31 20:17:00,46.2,40.4,29.79,East,90,6.3,-999.0,80,-99.99,,,0.00,Acu-Link.com,2013-04-01 00:17:00,
2013-03-31 20:32:00,46.2,40.7,29.78,South,180,5.3,-999.0,81,-99.99,,,0.00,Acu-Link.com,2013-04-01 00:32:00,
2013-03-31 20:48:00,45.3,41.1,29.78,ESE,112,6.8,-999.0,85,-99.99,,,0.00,Acu-Link.com,2013-04-01 00:48:00,
2013-03-31 21:03:00,45.0,41.4,29.76,SSE,157,4.7,-999.0,87,-99.99,,,0.00,Acu-Link.com,2013-04-01 01:03:00,
2013-03-31 21:18:00,44.4,40.5,29.75,SSE,157,6.3,-999.0,86,-99.99,,,0.00,Acu-Link.com,2013-04-01 01:18:00,
2013-03-31 21:33:00,44.2,40.0,29.73,East,90,3.2,-999.0,85,-99.99,,,0.00,Acu-Link.com,2013-04-01 01:33:00,
2013-03-31 21:48:00,44.8,40.9,29.71,East,90,2.2,-999.0,86,-99.99,,,0.00,Acu-Link.com,2013-04-01 01:48:00,
2013-03-31 22:04:00,45.0,42.0,29.70,NE,45,3.2,-999.0,89,-99.99,,,0.00,Acu-Link.com,2013-04-01 02:04:00,
2013-03-31 22:19:00,44.8,42.6,29.69,NE,45,0.0,-999.0,92,-99.99,,,0.01,Acu-Link.com,2013-04-01 02:19:00,
2013-03-31 22:34:00,44.4,42.8,29.67,NNE,22,2.7,-999.0,94,-99.99,,,0.03,Acu-Link.com,2013-04-01 02:34:00,
2013-03-31 22:50:00,44.2,42.9,29.65,NNW,337,2.7,-999.0,95,-99.99,,,0.06,Acu-Link.com,2013-04-01 02:50:00,
2013-03-31 23:05:00,44.2,43.1,29.63,ENE,67,4.2,-999.0,96,-99.99,,,0.09,Acu-Link.com,2013-04-01 03:05:00,